This is the latest recevied weather packets stored in our database for station/object KI8L. If no packets are shown the sender has not sent any weather packets the latest 10 day(s).
| Time | Temp. | Humidity | Pressure | Rain* | Wind** | Luminosity | Snow |
|---|---|---|---|---|---|---|---|
| 1777942733 | 18.89° C | 66% | 1007.3 hPa | 0 mm | - | 0 W/m² | - |
| 1777942430 | 18.33° C | 66% | 1007.5 hPa | 0 mm | - | 0 W/m² | - |
| 1777942128 | 18.89° C | 65% | 1007.3 hPa | 0 mm | - | 0 W/m² | - |
| 1777941824 | 18.89° C | 65% | 1007.3 hPa | 0 mm | - | 0 W/m² | - |
| 1777941521 | 18.89° C | 63% | 1007.5 hPa | 0 mm | - | 1 W/m² | - |
| 1777941218 | 19.44° C | 63% | 1007.4 hPa | 0 mm | - | 1 W/m² | - |
| 1777940914 | 19.44° C | 62% | 1007.5 hPa | 0 mm | - | 2 W/m² | - |
| 1777940611 | 19.44° C | 62% | 1007.1 hPa | 0 mm | - | 4 W/m² | - |
| 1777940310 | 19.44° C | 62% | 1007.1 hPa | 0 mm | - | 6 W/m² | - |
| 1777940006 | 20° C | 61% | 1007.1 hPa | 0 mm | - | 8 W/m² | - |
| 1777939703 | 20° C | 59% | 1006.9 hPa | 0 mm | - | 11 W/m² | - |
| 1777939401 | 20.56° C | 58% | 1006.8 hPa | 0 mm | - | 13 W/m² | - |
| 1777939098 | 20.56° C | 56% | 1006.8 hPa | 0 mm | - | 15 W/m² | - |
| 1777938794 | 20.56° C | 57% | 1006.8 hPa | 0 mm | - | 17 W/m² | - |
| 1777938491 | 20.56° C | 58% | 1006.8 hPa | 0 mm | - | 20 W/m² | - |
| 1777938189 | 20.56° C | 56% | 1006.7 hPa | 0 mm | - | 22 W/m² | - |
| 1777937885 | 20.56° C | 59% | 1006.6 hPa | 0 mm | - | 28 W/m² | - |
| 1777937581 | 20.56° C | 58% | 1006.4 hPa | 0 mm | - | 30 W/m² | - |
| 1777937278 | 20.56° C | 58% | 1006.2 hPa | 0 mm | - | 33 W/m² | - |
| 1777936975 | 21.11° C | 56% | 1006.3 hPa | 0 mm | - | 27 W/m² | - |
| 1777936672 | 21.11° C | 56% | 1006.3 hPa | 0 mm | - | 36 W/m² | - |
| 1777936368 | 21.11° C | 58% | 1006.4 hPa | 0 mm | - | 43 W/m² | - |
| 1777936064 | 21.67° C | 57% | 1006.3 hPa | 0 mm | - | 53 W/m² | - |
| 1777935763 | 21.67° C | 58% | 1006.6 hPa | 0 mm | - | 82 W/m² | - |
| 1777935461 | 21.11° C | 56% | 1006.7 hPa | 0 mm | - | 126 W/m² | - |
* Rain latest hour (hover to see other rain measurements)
** Current wind speed in m/s (hover to see current wind gust speed)